{"data":{"norad_id":67877,"intl_designator":"2026-034AD","name":"STARLINK-36784","alt_names":[],"object_type":"PAYLOAD","status":"ACTIVE","operator":null,"country":"US","launch_date":"2026-02-20","launch_site_code":"AFETR","launch_vehicle":null,"mission":null,"orbit_class":"UNKNOWN","rcs_meters":null,"size_class":null,"mass_kg":null,"dimensions":null,"purposes":["comms"],"wikipedia_slug":null,"has_3d_model":false,"image_url":null,"decayed_at":null,"tle_current":{"epoch":"2026-05-25T04:44:04.318080Z","epoch_age_seconds":68537,"freshness":"FRESH","line1":"1 67877U 26034AD  26145.19727220  .00022573  00000+0  79178-3 0  9991","line2":"2 67877  53.1577 209.2961 0000563  52.1071 307.9980 15.29373114 15743","mean_motion":15.29373114,"eccentricity":5.63e-5,"inclination_deg":53.1577,"raan_deg":209.2961,"arg_perigee_deg":52.1071,"mean_anomaly_deg":307.998,"bstar":0.00079178,"rev_number":1574,"period_min":94.156225633766,"perigee_km":477.2991315142,"apogee_km":478.07109708427,"semimajor_km":6855.8221142992,"source":"CELESTRAK","updated_at":"2026-05-25T13:38:21.731002Z"}}}